This demonstration page uses our WeatherBlox Daily Observations layout. Learn more.

Left ArrowRight Arrow

Hourly Observations for May 9, 2021

Temp ( °F °C ) Dew Point ( °F °C ) Humidity (%) Winds ( mph kmh ) Pressure ( in mb ) Visibility ( mi km ) Precip ( " mm )
12:53 am 00:53 Clear 69 20.6 35 1.7 29 29 N 13 20 30.04 1017 10 16 0.00 0.00
1:29 am 01:29 Hazy 67 19.4 36 2.2 32 32 N 12 19 30.04 1017 3 4 0.00 0.00
1:38 am 01:38 Clear 68 20 36 2.2 31 31 N 12 19 30.04 1017 10 16 0.00 0.00
1:53 am 01:53 Clear 67 19.4 36 2.2 32 32 N 13 20 30.04 1017 10 16 0.00 0.00
2:53 am 02:53 Clear 66 18.9 37 2.8 34 34 NNW 13 20 30.02 1017 10 16 0.00 0.00
3:53 am 03:53 Clear 64 17.8 37 2.8 37 37 NNW 10 17 30.01 1016 10 16 0.00 0.00
4:53 am 04:53 Clear 64 17.8 37 2.8 37 37 N 16 26 30.00 1016 10 16 0.00 0.00
5:53 am 05:53 Clear 64 17.8 37 2.8 37 37 N 13 20 30.01 1016 10 16 0.00 0.00
6:53 am 06:53 Sunny 64 17.8 37 2.8 37 37 N 12 19 30.01 1016 10 16 0.00 0.00
7:53 am 07:53 Sunny 66 18.9 38 3.3 36 36 NNW 12 19 30.03 1017 10 16 0.00 0.00
8:53 am 08:53 Sunny 69 20.6 38 3.3 32 32 N 13 20 30.03 1017 10 16 0.00 0.00
9:53 am 09:53 Sunny 73 22.8 38 3.3 28 28 NNW 13 20 30.02 1017 10 16 0.00 0.00
10:53 am 10:53 Sunny 75 23.9 37 2.8 25 25 N 15 24 30.00 1016 10 16 0.00 0.00
11:53 am 11:53 Sunny 78 25.6 35 1.7 21 21 N 18 30 29.97 1015 10 16 0.00 0.00
12:53 pm 12:53 Sunny 80 26.7 35 1.7 20 20 NNE 20 31 29.93 1014 10 16 0.00 0.00
2:53 pm 14:53 Sunny 83 28.3 31 -0.6 15 15 NNE 21 33 29.88 1012 10 16 0.00 0.00
3:53 pm 15:53 Sunny 84 28.9 32 0 15 15 N 12 19 29.85 1011 10 16 0.00 0.00
4:53 pm 16:53 Sunny 84 28.9 29 -1.7 13 13 NNE 20 31 29.83 1010 10 16 0.00 0.00
5:53 pm 17:53 Sunny 84 28.9 28 -2.2 13 13 N 17 28 29.82 1010 10 16 0.00 0.00
6:53 pm 18:53 Sunny 82 27.8 27 -2.8 13 13 N 13 20 29.82 1010 10 16 0.00 0.00
7:53 pm 19:53 Sunny 79 26.1 27 -2.8 15 15 N 12 19 29.83 1010 10 16 0.00 0.00
8:53 pm 20:53 Clear 76 24.4 29 -1.7 18 18 undefined N/A 29.85 1011 10 16 0.00 0.00
9:53 pm 21:53 Clear 74 23.3 29 -1.7 19 19 N 12 19 29.88 1012 10 16 0.00 0.00
10:53 pm 22:53 Clear 72 22.2 31 -0.6 22 22 NNW 12 19 29.88 1012 10 16 0.00 0.00
11:53 pm 23:53 Clear 70 21.1 33 0.6 26 26 N 10 17 29.89 1012 10 16 0.00 0.00

Powered by AerisWeather